Satellite: NOAA-12
Catalog number: 21263
Epoch time:      09085.49759575
Element set:      52
Inclination:      098.7732 deg
RA of node:       093.5164 deg
Eccentricity:    0.0012977
Arg of perigee:   029.9141 deg
Mean anomaly:     330.2776 deg
Mean motion:   14.25571544 rev/day
Decay rate:        3.7e-07 rev/day^2
Epoch rev:           92861
Checksum:              326

Satellite: MET-3/5
Catalog number: 21655
Epoch time:      09085.57082462
Element set:     575
Inclination:      082.5493 deg
RA of node:       264.8644 deg
Eccentricity:    0.0014508
Arg of perigee:   031.6281 deg
Mean anomaly:     328.5707 deg
Mean motion:   13.17018836 rev/day
Decay rate:        5.1e-07 rev/day^2
Epoch rev:           84675
Checksum:              321

Satellite: MET-2/21
Catalog number: 22782
Epoch time:      09085.45186795
Element set:     414
Inclination:      082.5433 deg
RA of node:       247.6311 deg
Eccentricity:    0.0021451
Arg of perigee:   216.0644 deg
Mean anomaly:     143.9072 deg
Mean motion:   13.83634419 rev/day
Decay rate:        4.7e-07 rev/day^2
Epoch rev:           78616
Checksum:              305

Satellite: OKEAN-4
Catalog number: 23317
Epoch time:      09084.68632818
Element set:    0864
Inclination:      082.5370 deg
RA of node:       052.4022 deg
Eccentricity:    0.0020525
Arg of perigee:   281.5477 deg
Mean anomaly:     078.3460 deg
Mean motion:   14.82683744 rev/day
Decay rate:       2.77e-06 rev/day^2
Epoch rev:           77999
Checksum:              331

Satellite: NOAA-14
Catalog number: 23455
Epoch time:      09085.43746391
Element set:     560
Inclination:      098.9136 deg
RA of node:       163.3937 deg
Eccentricity:    0.0010279
Arg of perigee:   068.4178 deg
Mean anomaly:     291.8095 deg
Mean motion:   14.13758444 rev/day
Decay rate:      -2.63e-06 rev/day^2
Epoch rev:           73423
Checksum:              331

Satellite: NOAA-15
Catalog number: 25338
Epoch time:      09085.39545794
Element set:     866
Inclination:      098.5804 deg
RA of node:       076.4367 deg
Eccentricity:    0.0009745
Arg of perigee:   302.3458 deg
Mean anomaly:     057.6787 deg
Mean motion:   14.24750880 rev/day
Decay rate:       -2.0e-07 rev/day^2
Epoch rev:           56498
Checksum:              357

Satellite: RESURS
Catalog number: 25394
Epoch time:      09084.90694049
Element set:     173
Inclination:      098.3515 deg
RA of node:       121.4599 deg
Eccentricity:    0.0002374
Arg of perigee:   085.4781 deg
Mean anomaly:     274.6669 deg
Mean motion:   14.24180858 rev/day
Decay rate:       -2.4e-07 rev/day^2
Epoch rev:           55654
Checksum:              330

Satellite: FENGYUN1
Catalog number: 25730
Epoch time:      09084.92344324
Element set:    0733
Inclination:      098.7505 deg
RA of node:       057.5940 deg
Eccentricity:    0.0023090
Arg of perigee:   093.5447 deg
Mean anomaly:     266.8363 deg
Mean motion:   14.07949128 rev/day
Decay rate:       2.43e-06 rev/day^2
Epoch rev:           50860
Checksum:              309

Satellite: OKEAN-0
Catalog number: 25860
Epoch time:      09085.46494778
Element set:     633
Inclination:      097.7796 deg
RA of node:       069.9637 deg
Eccentricity:    0.0001836
Arg of perigee:   082.0970 deg
Mean anomaly:     278.0458 deg
Mean motion:   14.73564305 rev/day
Decay rate:        4.4e-07 rev/day^2
Epoch rev:           52096
Checksum:              346

Satellite: NOAA-16
Catalog number: 26536
Epoch time:      09085.34498960
Element set:     340
Inclination:      099.1766 deg
RA of node:       087.0091 deg
Eccentricity:    0.0011079
Arg of perigee:   150.4928 deg
Mean anomaly:     209.6905 deg
Mean motion:   14.12514137 rev/day
Decay rate:       2.25e-06 rev/day^2
Epoch rev:           43860
Checksum:              311

Satellite: NOAA-17
Catalog number: 27453
Epoch time:      09085.44303338
Element set:     349
Inclination:      098.4934 deg
RA of node:       147.3315 deg
Eccentricity:    0.0011797
Arg of perigee:   010.5042 deg
Mean anomaly:     349.6376 deg
Mean motion:   14.24049937 rev/day
Decay rate:       -5.2e-07 rev/day^2
Epoch rev:           35097
Checksum:              317

Satellite: NOAA-18
Catalog number: 28654
Epoch time:      09085.45052694
Element set:     841
Inclination:      098.9008 deg
RA of node:       029.3589 deg
Eccentricity:    0.0013567
Arg of perigee:   235.2204 deg
Mean anomaly:     124.7669 deg
Mean motion:   14.11244910 rev/day
Decay rate:       1.39e-06 rev/day^2
Epoch rev:           19828
Checksum:              327

Satellite: NOAA-19
Catalog number: 33591
Epoch time:      09084.84551227
Element set:    0049
Inclination:      098.7389 deg
RA of node:       032.8058 deg
Eccentricity:    0.0015006
Arg of perigee:   118.0524 deg
Mean anomaly:     242.2183 deg
Mean motion:   14.10943845 rev/day
Decay rate:       1.58e-06 rev/day^2
Epoch rev:           00668
Checksum:              307

/EX
SB KEPS @ AMSAT  $ORB09085.M
Orbital Elements  09085.MISC

HR AMSAT ORBITAL ELEMENTS FOR MANNED AND MISCELLANEOUS SATELLITES
FROM WA5QGD FORT WORTH,TX March 26, 2009
Send Subscribe/unsubscribe to KEPS at 
http://www.amsat.org/mailman/listinfo/keps
BID: ORB09085.M
TO ALL RADIO AMATEURS BT

